{"data":{"norad_id":56005,"intl_designator":"2023-042V","name":"STARLINK-5801","alt_names":[],"object_type":"PAYLOAD","status":"ACTIVE","operator":null,"country":"US","launch_date":"2023-03-24","launch_site_code":"AFETR","launch_vehicle":null,"mission":null,"orbit_class":"UNKNOWN","rcs_meters":null,"size_class":null,"mass_kg":null,"dimensions":null,"purposes":["comms"],"wikipedia_slug":null,"has_3d_model":false,"image_url":null,"decayed_at":null,"tle_current":{"epoch":"2026-09-20T21:03:51.660000Z","epoch_age_seconds":73424,"freshness":"FRESH","line1":"1 56005U 23042V   26263.87768125  .00000263  00000+0  19099-4 0  9992","line2":"2 56005  43.0025  41.3178 0001194 269.5315  90.5400 15.27578656192677","mean_motion":15.27578656,"eccentricity":0.0001194,"inclination_deg":43.0025,"raan_deg":41.3178,"arg_perigee_deg":269.5315,"mean_anomaly_deg":90.54,"bstar":1.9099e-5,"rev_number":19267,"period_min":94.266831651777,"perigee_km":482.23389436172,"apogee_km":483.87234656249,"semimajor_km":6861.1901204621,"source":"CELESTRAK","updated_at":"2026-09-21T09:00:33.352874Z"}}}